Time,TemperatureF,DewpointF,PressureIn,WindDirection,WindDirectionDegrees,WindSpeedMPH,WindSpeedGustMPH,Humidity,HourlyPrecipIn,Conditions,Clouds,dailyrainin,SolarRadiationWatts/m^2,SoftwareType,DateUTC
2013-01-20 00:00:00,46.0,38.5,30.19,WSW,238,0.0,6.0,75,0.00,,---,0.00,0.00,VWS V14.00,2013-01-20 06:00:00,
2013-01-20 00:03:00,46.2,38.7,30.19,SW,229,1.0,7.0,75,0.00,,---,0.00,0.00,VWS V14.00,2013-01-20 06:03:00,
2013-01-20 00:08:00,46.3,38.5,30.19,SW,231,0.0,7.0,74,0.00,,---,0.00,0.00,VWS V14.00,2013-01-20 06:08:00,
2013-01-20 00:13:00,46.4,38.6,30.19,WSW,243,0.0,7.0,74,0.00,,---,0.00,0.00,VWS V14.00,2013-01-20 06:13:00,
2013-01-20 00:18:00,46.4,38.6,30.19,WSW,257,2.0,7.0,74,0.00,,---,0.00,0.00,VWS V14.00,2013-01-20 06:18:00,
2013-01-20 00:23:00,46.5,38.7,30.19,WSW,239,0.0,7.0,74,0.00,,---,0.00,0.00,VWS V14.00,2013-01-20 06:23:00,
2013-01-20 00:28:00,46.4,38.6,30.19,SW,234,0.0,0.0,74,0.00,,---,0.00,0.00,VWS V14.00,2013-01-20 06:28:00,
2013-01-20 00:30:00,46.4,38.6,30.19,SW,234,0.0,7.0,74,0.00,,---,0.00,0.00,VWS V14.00,2013-01-20 06:30:00,
2013-01-20 00:33:00,46.5,38.7,30.19,SW,234,4.0,6.0,74,0.00,,---,0.00,0.00,VWS V14.00,2013-01-20 06:33:00,
2013-01-20 00:38:00,46.4,38.6,30.19,SW,227,4.0,6.0,74,0.00,,---,0.00,0.00,VWS V14.00,2013-01-20 06:38:00,
2013-01-20 00:43:00,46.5,38.7,30.19,SW,232,4.0,6.0,74,0.00,,---,0.00,0.00,VWS V14.00,2013-01-20 06:43:00,
2013-01-20 00:48:00,46.6,38.8,30.19,WSW,250,1.0,6.0,74,0.00,,---,0.00,0.00,VWS V14.00,2013-01-20 06:48:00,
2013-01-20 00:53:00,46.6,38.8,30.19,SW,229,3.0,6.0,74,0.00,,---,0.00,0.00,VWS V14.00,2013-01-20 06:53:00,
2013-01-20 00:58:00,46.5,38.3,30.19,WSW,240,1.0,3.0,73,0.00,,---,0.00,0.00,VWS V14.00,2013-01-20 06:58:00,
2013-01-20 01:00:00,46.5,38.3,30.19,SW,219,3.0,6.0,73,0.00,,---,0.00,0.00,VWS V14.00,2013-01-20 07:00:00,
2013-01-20 01:03:00,46.6,38.4,30.19,WNW,297,3.0,4.0,73,0.00,,---,0.00,0.00,VWS V14.00,2013-01-20 07:03:00,
2013-01-20 01:08:00,46.6,38.4,30.19,SW,222,4.0,5.0,73,0.00,,---,0.00,0.00,VWS V14.00,2013-01-20 07:08:00,
2013-01-20 01:13:00,46.8,38.6,30.19,WSW,242,3.0,7.0,73,0.00,,---,0.00,0.00,VWS V14.00,2013-01-20 07:13:00,
2013-01-20 01:18:00,46.8,38.3,30.19,SW,236,0.0,7.0,72,0.00,,---,0.00,0.00,VWS V14.00,2013-01-20 07:18:00,
2013-01-20 01:23:00,46.7,38.2,30.19,SW,235,4.0,7.0,72,0.00,,---,0.00,0.00,VWS V14.00,2013-01-20 07:23:00,
2013-01-20 01:28:00,46.8,38.3,30.19,SW,236,4.0,5.0,72,0.00,,---,0.00,0.00,VWS V14.00,2013-01-20 07:28:00,
2013-01-20 01:30:00,46.8,38.3,30.19,WSW,254,1.0,7.0,72,0.00,,---,0.00,0.00,VWS V14.00,2013-01-20 07:30:00,
2013-01-20 01:33:00,46.7,38.2,30.19,WSW,240,0.0,5.0,72,0.00,,---,0.00,0.00,VWS V14.00,2013-01-20 07:33:00,
2013-01-20 01:38:00,46.6,38.1,30.19,WSW,248,0.0,6.0,72,0.00,,---,0.00,0.00,VWS V14.00,2013-01-20 07:38:00,
2013-01-20 01:43:00,46.6,38.1,30.20,SW,236,0.0,6.0,72,0.00,,---,0.00,0.00,VWS V14.00,2013-01-20 07:43:00,
2013-01-20 01:48:00,46.5,38.0,30.20,WSW,238,0.0,6.0,72,0.00,,---,0.00,0.00,VWS V14.00,2013-01-20 07:48:00,
2013-01-20 01:53:00,46.4,38.2,30.20,SW,230,1.0,6.0,73,0.00,,---,0.00,0.00,VWS V14.00,2013-01-20 07:53:00,
2013-01-20 01:58:00,46.4,37.9,30.20,SW,232,2.0,4.0,72,0.00,,---,0.00,0.00,VWS V14.00,2013-01-20 07:58:00,
2013-01-20 02:00:00,46.4,37.9,30.20,SW,230,4.0,6.0,72,0.00,,---,0.00,0.00,VWS V14.00,2013-01-20 08:00:00,
2013-01-20 02:03:00,46.4,37.9,30.19,WSW,242,2.0,5.0,72,0.00,,---,0.00,0.00,VWS V14.00,2013-01-20 08:03:00,
2013-01-20 02:08:00,46.4,37.9,30.20,WSW,246,0.0,5.0,72,0.00,,---,0.00,0.00,VWS V14.00,2013-01-20 08:08:00,
2013-01-20 02:13:00,46.3,37.8,30.20,WSW,254,0.0,5.0,72,0.00,,---,0.00,0.00,VWS V14.00,2013-01-20 08:13:00,
2013-01-20 02:18:00,46.3,37.8,30.19,West,259,0.0,5.0,72,0.00,,---,0.00,0.00,VWS V14.00,2013-01-20 08:18:00,
2013-01-20 02:23:00,46.2,37.7,30.19,WSW,240,0.0,5.0,72,0.00,,---,0.00,0.00,VWS V14.00,2013-01-20 08:23:00,
2013-01-20 02:28:00,46.1,37.6,30.19,WSW,258,4.0,4.0,72,0.00,,---,0.00,0.00,VWS V14.00,2013-01-20 08:28:00,
2013-01-20 02:30:00,46.1,37.6,30.19,WSW,242,1.0,5.0,72,0.00,,---,0.00,0.00,VWS V14.00,2013-01-20 08:30:00,
2013-01-20 02:33:00,46.1,37.6,30.20,WSW,256,0.0,4.0,72,0.00,,---,0.00,0.00,VWS V14.00,2013-01-20 08:33:00,
2013-01-20 02:38:00,46.0,37.5,30.19,WSW,251,2.0,5.0,72,0.00,,---,0.00,0.00,VWS V14.00,2013-01-20 08:38:00,
2013-01-20 02:43:00,45.9,37.4,30.19,WSW,242,0.0,5.0,72,0.00,,---,0.00,0.00,VWS V14.00,2013-01-20 08:43:00,
2013-01-20 02:48:00,45.8,37.3,30.19,WSW,258,3.0,5.0,72,0.00,,---,0.00,0.00,VWS V14.00,2013-01-20 08:48:00,
2013-01-20 02:53:00,45.7,37.5,30.19,West,264,0.0,5.0,73,0.00,,---,0.00,0.00,VWS V14.00,2013-01-20 08:53:00,
2013-01-20 02:58:00,45.6,37.5,30.19,West,259,0.0,0.0,73,0.00,,---,0.00,0.00,VWS V14.00,2013-01-20 08:58:00,
2013-01-20 03:00:00,45.6,37.5,30.19,West,259,0.0,5.0,73,0.00,,---,0.00,0.00,VWS V14.00,2013-01-20 09:00:00,
2013-01-20 03:03:00,45.5,38.4,30.19,West,261,0.0,0.0,76,0.00,,---,0.00,0.00,VWS V14.00,2013-01-20 09:03:00,
2013-01-20 03:08:00,45.4,37.3,30.19,West,260,0.0,1.0,73,0.00,,---,0.00,0.00,VWS V14.00,2013-01-20 09:08:00,
2013-01-20 03:13:00,45.3,37.2,30.19,West,259,0.0,1.0,73,0.00,,---,0.00,0.00,VWS V14.00,2013-01-20 09:13:00,
2013-01-20 03:18:00,45.2,37.1,30.19,West,259,0.0,2.0,73,0.00,,---,0.00,0.00,VWS V14.00,2013-01-20 09:18:00,
2013-01-20 03:23:00,45.1,37.0,30.19,West,259,0.0,2.0,73,0.00,,---,0.00,0.00,VWS V14.00,2013-01-20 09:23:00,
2013-01-20 03:28:00,45.0,36.9,30.19,West,259,0.0,0.0,73,0.00,,---,0.00,0.00,VWS V14.00,2013-01-20 09:28:00,
2013-01-20 03:30:00,45.0,36.9,30.19,West,259,0.0,2.0,73,0.00,,---,0.00,0.00,VWS V14.00,2013-01-20 09:30:00,
2013-01-20 03:33:00,45.0,36.9,30.18,West,259,0.0,2.0,73,0.00,,---,0.00,0.00,VWS V14.00,2013-01-20 09:33:00,
2013-01-20 03:38:00,44.9,36.8,30.18,West,259,0.0,2.0,73,0.00,,---,0.00,0.00,VWS V14.00,2013-01-20 09:38:00,
2013-01-20 03:43:00,44.9,37.1,30.19,West,259,0.0,2.0,74,0.00,,---,0.00,0.00,VWS V14.00,2013-01-20 09:43:00,
2013-01-20 03:48:00,44.7,36.6,30.19,West,259,0.0,2.0,73,0.00,,---,0.00,0.00,VWS V14.00,2013-01-20 09:48:00,
2013-01-20 03:53:00,44.4,36.7,30.18,West,259,0.0,2.0,74,0.00,,---,0.00,0.00,VWS V14.00,2013-01-20 09:53:00,
2013-01-20 03:58:00,44.2,36.5,30.18,West,259,0.0,0.0,74,0.00,,---,0.00,0.00,VWS V14.00,2013-01-20 09:58:00,
2013-01-20 04:00:00,44.2,36.5,30.18,West,259,0.0,2.0,74,0.00,,---,0.00,0.00,VWS V14.00,2013-01-20 10:00:00,
2013-01-20 04:03:00,44.0,36.6,30.18,West,259,0.0,0.0,75,0.00,,---,0.00,0.00,VWS V14.00,2013-01-20 10:03:00,
2013-01-20 04:08:00,44.0,36.6,30.18,West,259,0.0,0.0,75,0.00,,---,0.00,0.00,VWS V14.00,2013-01-20 10:08:00,
2013-01-20 04:13:00,44.0,36.6,30.18,West,259,0.0,2.0,75,0.00,,---,0.00,0.00,VWS V14.00,2013-01-20 10:13:00,
2013-01-20 04:18:00,44.0,36.6,30.18,West,259,0.0,2.0,75,0.00,,---,0.00,0.00,VWS V14.00,2013-01-20 10:18:00,
2013-01-20 04:23:00,44.0,36.6,30.18,West,259,0.0,2.0,75,0.00,,---,0.00,0.00,VWS V14.00,2013-01-20 10:23:00,
2013-01-20 04:28:00,43.9,36.8,30.18,West,259,0.0,0.0,76,0.00,,---,0.00,0.00,VWS V14.00,2013-01-20 10:28:00,
2013-01-20 04:30:00,43.9,36.8,30.18,West,259,0.0,2.0,76,0.00,,---,0.00,0.00,VWS V14.00,2013-01-20 10:30:00,
2013-01-20 04:33:00,43.7,36.6,30.18,West,259,0.0,0.0,76,0.00,,---,0.00,0.00,VWS V14.00,2013-01-20 10:33:00,
2013-01-20 04:38:00,43.4,36.3,30.18,West,259,0.0,0.0,76,0.00,,---,0.00,0.00,VWS V14.00,2013-01-20 10:38:00,
2013-01-20 04:43:00,43.2,36.2,30.18,West,259,0.0,0.0,76,0.00,,---,0.00,0.00,VWS V14.00,2013-01-20 10:43:00,
2013-01-20 04:48:00,43.0,36.0,30.18,West,259,0.0,0.0,76,0.00,,---,0.00,0.00,VWS V14.00,2013-01-20 10:48:00,
2013-01-20 04:53:00,42.8,36.1,30.18,West,259,0.0,0.0,77,0.00,,---,0.00,0.00,VWS V14.00,2013-01-20 10:53:00,
2013-01-20 04:58:00,42.6,35.9,30.18,West,259,0.0,0.0,77,0.00,,---,0.00,0.00,VWS V14.00,2013-01-20 10:58:00,
2013-01-20 05:00:00,42.6,35.9,30.18,West,259,0.0,0.0,77,0.00,,---,0.00,0.00,VWS V14.00,2013-01-20 11:00:00,
2013-01-20 05:03:00,42.4,35.7,30.18,West,259,0.0,0.0,77,0.00,,---,0.00,0.00,VWS V14.00,2013-01-20 11:03:00,
2013-01-20 05:08:00,42.2,35.8,30.19,West,259,0.0,0.0,78,0.00,,---,0.00,0.00,VWS V14.00,2013-01-20 11:08:00,
2013-01-20 05:13:00,41.9,35.2,30.19,West,259,0.0,0.0,77,0.00,,---,0.00,0.00,VWS V14.00,2013-01-20 11:13:00,
2013-01-20 05:17:00,41.6,35.3,30.19,West,259,0.0,0.0,78,0.00,,---,0.00,0.00,VWS V14.00,2013-01-20 11:17:00,
2013-01-20 05:22:00,41.2,34.9,30.19,West,259,0.0,0.0,78,0.00,,---,0.00,0.00,VWS V14.00,2013-01-20 11:22:00,
2013-01-20 05:27:00,40.9,34.6,30.19,West,259,0.0,0.0,78,0.00,,---,0.00,0.00,VWS V14.00,2013-01-20 11:27:00,
2013-01-20 05:30:00,40.9,34.6,30.19,West,259,0.0,0.0,78,0.00,,---,0.00,0.00,VWS V14.00,2013-01-20 11:30:00,
2013-01-20 05:32:00,40.4,34.4,30.19,West,259,0.0,0.0,79,0.00,,---,0.00,0.00,VWS V14.00,2013-01-20 11:32:00,
2013-01-20 05:37:00,40.2,34.5,30.19,West,259,0.0,0.0,80,0.00,,---,0.00,0.00,VWS V14.00,2013-01-20 11:37:00,
2013-01-20 05:42:00,40.0,35.3,30.19,West,259,0.0,0.0,83,0.00,,---,0.00,0.00,VWS V14.00,2013-01-20 11:42:00,
2013-01-20 05:47:00,40.0,35.0,30.19,West,259,0.0,0.0,82,0.00,,---,0.00,0.00,VWS V14.00,2013-01-20 11:47:00,
2013-01-20 05:52:00,39.8,34.8,30.19,West,259,0.0,0.0,82,0.00,,---,0.00,0.00,VWS V14.00,2013-01-20 11:52:00,
2013-01-20 05:57:00,39.6,34.9,30.20,West,259,0.0,0.0,83,0.00,,---,0.00,0.00,VWS V14.00,2013-01-20 11:57:00,
2013-01-20 06:00:00,39.6,34.9,30.19,West,259,0.0,0.0,83,0.00,,---,0.00,0.00,VWS V14.00,2013-01-20 12:00:00,
2013-01-20 06:02:00,39.2,34.2,30.20,West,259,0.0,0.0,82,0.00,,---,0.00,0.00,VWS V14.00,2013-01-20 12:02:00,
2013-01-20 06:07:00,38.8,33.5,30.20,West,259,0.0,0.0,81,0.00,,---,0.00,0.00,VWS V14.00,2013-01-20 12:07:00,
2013-01-20 06:12:00,38.5,33.8,30.20,West,259,0.0,0.0,83,0.00,,---,0.00,0.00,VWS V14.00,2013-01-20 12:12:00,
2013-01-20 06:17:00,38.3,33.6,30.20,West,259,0.0,0.0,83,0.00,,---,0.00,0.00,VWS V14.00,2013-01-20 12:17:00,
2013-01-20 06:23:00,38.0,33.3,30.20,West,259,0.0,0.0,83,0.00,,---,0.00,0.00,VWS V14.00,2013-01-20 12:23:00,
2013-01-20 06:27:00,37.9,33.2,30.20,West,259,0.0,0.0,83,0.00,,---,0.00,0.00,VWS V14.00,2013-01-20 12:27:00,
2013-01-20 06:30:00,37.9,33.2,30.20,West,259,0.0,0.0,83,0.00,,---,0.00,0.00,VWS V14.00,2013-01-20 12:30:00,
2013-01-20 06:32:00,37.7,33.0,30.20,West,259,0.0,0.0,83,0.00,,---,0.00,0.00,VWS V14.00,2013-01-20 12:32:00,
2013-01-20 06:37:00,37.4,32.7,30.20,West,259,0.0,0.0,83,0.00,,---,0.00,0.00,VWS V14.00,2013-01-20 12:37:00,
2013-01-20 06:42:00,37.3,33.2,30.20,West,259,0.0,0.0,85,0.00,,---,0.00,0.00,VWS V14.00,2013-01-20 12:42:00,
2013-01-20 06:47:00,37.3,33.5,30.20,West,259,0.0,0.0,86,0.00,,---,0.00,0.00,VWS V14.00,2013-01-20 12:47:00,
2013-01-20 06:52:00,37.3,33.2,30.20,West,259,0.0,0.0,85,0.00,,---,0.00,0.00,VWS V14.00,2013-01-20 12:52:00,
2013-01-20 06:57:00,37.1,33.0,30.20,West,259,0.0,0.0,85,0.00,,---,0.00,0.00,VWS V14.00,2013-01-20 12:57:00,
2013-01-20 07:00:00,37.2,33.1,30.20,West,259,0.0,0.0,85,0.00,,---,0.00,0.00,VWS V14.00,2013-01-20 13:00:00,
2013-01-20 07:02:00,37.0,33.2,30.20,West,259,0.0,0.0,86,0.00,,---,0.00,0.00,VWS V14.00,2013-01-20 13:02:00,
2013-01-20 07:07:00,37.0,33.2,30.20,West,259,0.0,0.0,86,0.00,,---,0.00,7.00,VWS V14.00,2013-01-20 13:07:00,
2013-01-20 07:12:00,36.9,33.1,30.20,West,259,0.0,0.0,86,0.00,,---,0.00,9.00,VWS V14.00,2013-01-20 13:12:00,
2013-01-20 07:17:00,36.8,33.0,30.20,West,259,0.0,0.0,86,0.00,,---,0.00,12.00,VWS V14.00,2013-01-20 13:17:00,
2013-01-20 07:22:00,36.6,32.8,30.20,West,259,0.0,0.0,86,0.00,,---,0.00,14.00,VWS V14.00,2013-01-20 13:22:00,
2013-01-20 07:27:00,36.6,33.4,30.21,West,259,0.0,0.0,88,0.00,,---,0.00,18.00,VWS V14.00,2013-01-20 13:27:00,
2013-01-20 07:30:00,36.6,33.4,30.21,West,259,0.0,0.0,88,0.00,,---,0.00,16.00,VWS V14.00,2013-01-20 13:30:00,
2013-01-20 07:32:00,36.6,33.4,30.21,West,259,0.0,0.0,88,0.00,,---,0.00,19.00,VWS V14.00,2013-01-20 13:32:00,
2013-01-20 07:37:00,36.6,33.4,30.21,West,259,0.0,0.0,88,0.00,,---,0.00,21.00,VWS V14.00,2013-01-20 13:37:00,
2013-01-20 07:42:00,36.7,33.8,30.21,West,259,0.0,0.0,89,0.00,,---,0.00,23.00,VWS V14.00,2013-01-20 13:42:00,
2013-01-20 07:47:00,36.8,33.9,30.21,West,259,0.0,0.0,89,0.00,,---,0.00,35.00,VWS V14.00,2013-01-20 13:47:00,
2013-01-20 07:52:00,37.0,34.1,30.21,West,259,0.0,0.0,89,0.00,,---,0.00,79.00,VWS V14.00,2013-01-20 13:52:00,
2013-01-20 07:57:00,37.2,34.5,30.22,West,259,0.0,0.0,90,0.00,,---,0.00,95.00,VWS V14.00,2013-01-20 13:57:00,
2013-01-20 08:00:00,37.2,34.5,30.22,West,259,0.0,0.0,90,0.00,,---,0.00,91.00,VWS V14.00,2013-01-20 14:00:00,
2013-01-20 08:02:00,37.5,34.8,30.22,West,259,0.0,0.0,90,0.00,,---,0.00,107.00,VWS V14.00,2013-01-20 14:02:00,
2013-01-20 08:07:00,38.0,35.3,30.22,West,259,0.0,0.0,90,0.00,,---,0.00,123.00,VWS V14.00,2013-01-20 14:07:00,
2013-01-20 08:12:00,38.6,35.6,30.22,West,259,0.0,0.0,89,0.00,,---,0.00,139.00,VWS V14.00,2013-01-20 14:12:00,
2013-01-20 08:17:00,39.3,36.0,30.22,West,259,0.0,0.0,88,0.00,,---,0.00,153.00,VWS V14.00,2013-01-20 14:17:00,
2013-01-20 08:22:00,39.9,36.6,30.22,West,263,0.0,0.0,88,0.00,,---,0.00,156.00,VWS V14.00,2013-01-20 14:22:00,
2013-01-20 08:27:00,40.8,37.2,30.22,NE,41,0.0,0.0,87,0.00,,---,0.00,149.00,VWS V14.00,2013-01-20 14:27:00,
2013-01-20 08:30:00,40.7,37.1,30.22,NE,41,0.0,2.0,87,0.00,,---,0.00,151.00,VWS V14.00,2013-01-20 14:30:00,
2013-01-20 08:32:00,41.7,37.2,30.22,NNE,17,0.0,3.0,84,0.00,,---,0.00,141.00,VWS V14.00,2013-01-20 14:32:00,
2013-01-20 08:37:00,42.9,37.8,30.22,NNE,17,0.0,3.0,82,0.00,,---,0.00,111.00,VWS V14.00,2013-01-20 14:37:00,
2013-01-20 08:42:00,43.8,38.0,30.22,NNE,23,5.0,5.0,80,0.00,,---,0.00,77.00,VWS V14.00,2013-01-20 14:42:00,
2013-01-20 08:47:00,44.7,38.3,30.23,NNE,27,0.0,6.0,78,0.00,,---,0.00,53.00,VWS V14.00,2013-01-20 14:47:00,
2013-01-20 08:52:00,45.6,39.2,30.23,NE,34,0.0,6.0,78,0.00,,---,0.00,39.00,VWS V14.00,2013-01-20 14:52:00,
2013-01-20 08:57:00,46.5,39.0,30.23,North,360,0.0,0.0,75,0.00,,---,0.00,39.00,VWS V14.00,2013-01-20 14:57:00,
2013-01-20 09:00:00,46.5,39.0,30.23,North,360,0.0,6.0,75,0.00,,---,0.00,39.00,VWS V14.00,2013-01-20 15:00:00,
2013-01-20 09:02:00,47.4,39.5,30.23,North,360,0.0,6.0,74,0.00,,---,0.00,39.00,VWS V14.00,2013-01-20 15:02:00,
2013-01-20 09:07:00,48.0,39.4,30.24,North,360,0.0,6.0,72,0.00,,---,0.00,39.00,VWS V14.00,2013-01-20 15:07:00,
2013-01-20 09:12:00,48.7,39.0,30.24,North,355,2.0,7.0,69,0.00,,---,0.00,39.00,VWS V14.00,2013-01-20 15:12:00,
2013-01-20 09:17:00,49.4,39.3,30.24,NE,50,4.0,7.0,68,0.00,,---,0.00,39.00,VWS V14.00,2013-01-20 15:17:00,
2013-01-20 09:22:00,49.9,39.4,30.24,NNE,19,3.0,7.0,67,0.00,,---,0.00,39.00,VWS V14.00,2013-01-20 15:22:00,
2013-01-20 09:27:00,50.4,39.5,30.24,ENE,67,5.0,5.0,66,0.00,,---,0.00,40.00,VWS V14.00,2013-01-20 15:27:00,
2013-01-20 09:30:00,50.4,39.5,30.24,NE,55,5.0,9.0,66,0.00,,---,0.00,40.00,VWS V14.00,2013-01-20 15:30:00,
2013-01-20 09:32:00,50.8,39.1,30.24,NE,56,5.0,12.0,64,0.00,,---,0.00,40.00,VWS V14.00,2013-01-20 15:32:00,
2013-01-20 09:37:00,51.2,39.5,30.24,NNE,17,1.0,12.0,64,0.00,,---,0.00,40.00,VWS V14.00,2013-01-20 15:37:00,
2013-01-20 09:42:00,51.5,39.3,30.24,NE,55,0.0,12.0,63,0.00,,---,0.00,47.00,VWS V14.00,2013-01-20 15:42:00,
2013-01-20 09:47:00,51.9,38.9,30.24,ENE,65,0.0,12.0,61,0.00,,---,0.00,97.00,VWS V14.00,2013-01-20 15:47:00,
2013-01-20 09:52:00,52.1,38.7,30.24,NE,55,8.0,12.0,60,0.00,,---,0.00,197.00,VWS V14.00,2013-01-20 15:52:00,
2013-01-20 09:57:00,52.2,38.3,30.24,ENE,61,1.0,4.0,59,0.00,,---,0.00,318.00,VWS V14.00,2013-01-20 15:57:00,
2013-01-20 10:00:00,52.2,38.3,30.24,ENE,61,4.0,12.0,59,0.00,,---,0.00,318.00,VWS V14.00,2013-01-20 16:00:00,
2013-01-20 10:02:00,52.6,39.1,30.24,NE,44,3.0,7.0,60,0.00,,---,0.00,404.00,VWS V14.00,2013-01-20 16:02:00,
2013-01-20 10:07:00,52.8,38.9,30.24,NE,56,0.0,11.0,59,0.00,,---,0.00,438.00,VWS V14.00,2013-01-20 16:07:00,
2013-01-20 10:12:00,53.1,38.7,30.24,NNE,30,4.0,12.0,58,0.00,,---,0.00,443.00,VWS V14.00,2013-01-20 16:12:00,
2013-01-20 10:17:00,53.3,38.5,30.24,NE,54,4.0,12.0,57,0.00,,---,0.00,448.00,VWS V14.00,2013-01-20 16:17:00,
2013-01-20 10:22:00,53.3,38.0,30.24,ENE,63,0.0,12.0,56,0.00,,---,0.00,457.00,VWS V14.00,2013-01-20 16:22:00,
2013-01-20 10:27:00,53.4,38.1,30.24,NE,54,4.0,4.0,56,0.00,,---,0.00,464.00,VWS V14.00,2013-01-20 16:27:00,
2013-01-20 10:30:00,53.4,38.1,30.24,NE,48,3.0,14.0,56,0.00,,---,0.00,464.00,VWS V14.00,2013-01-20 16:30:00,
2013-01-20 10:32:00,53.8,38.5,30.24,NE,54,0.0,10.0,56,0.00,,---,0.00,473.00,VWS V14.00,2013-01-20 16:32:00,
2013-01-20 10:37:00,54.0,38.2,30.24,NE,53,6.0,10.0,55,0.00,,---,0.00,480.00,VWS V14.00,2013-01-20 16:37:00,
2013-01-20 10:42:00,54.1,37.8,30.23,NNE,27,0.0,12.0,54,0.00,,---,0.00,490.00,VWS V14.00,2013-01-20 16:42:00,
2013-01-20 10:47:00,54.6,38.3,30.23,ENE,59,0.0,12.0,54,0.00,,---,0.00,497.00,VWS V14.00,2013-01-20 16:47:00,
2013-01-20 10:52:00,55.0,37.2,30.23,NE,46,0.0,12.0,51,0.00,,---,0.00,503.00,VWS V14.00,2013-01-20 16:52:00,
2013-01-20 10:57:00,55.3,37.5,30.23,ENE,60,3.0,3.0,51,0.00,,---,0.00,510.00,VWS V14.00,2013-01-20 16:57:00,
2013-01-20 11:00:00,55.3,37.5,30.23,NE,35,0.0,12.0,51,0.00,,---,0.00,510.00,VWS V14.00,2013-01-20 17:00:00,
2013-01-20 11:02:00,55.5,38.2,30.23,NE,54,0.0,6.0,52,0.00,,---,0.00,519.00,VWS V14.00,2013-01-20 17:02:00,
2013-01-20 11:07:00,55.8,36.9,30.22,ENE,65,3.0,14.0,49,0.00,,---,0.00,526.00,VWS V14.00,2013-01-20 17:07:00,
2013-01-20 11:12:00,55.7,35.8,30.22,East,100,5.0,14.0,47,0.00,,---,0.00,533.00,VWS V14.00,2013-01-20 17:12:00,
2013-01-20 11:17:00,55.9,36.0,30.22,ENE,71,4.0,14.0,47,0.00,,---,0.00,540.00,VWS V14.00,2013-01-20 17:17:00,
2013-01-20 11:22:00,56.0,36.1,30.22,NNE,21,2.0,14.0,47,0.00,,---,0.00,547.00,VWS V14.00,2013-01-20 17:22:00,
2013-01-20 11:27:00,56.1,36.7,30.21,East,85,0.0,0.0,48,0.00,,---,0.00,554.00,VWS V14.00,2013-01-20 17:27:00,
2013-01-20 11:30:00,56.1,36.7,30.21,ENE,57,0.0,14.0,48,0.00,,---,0.00,554.00,VWS V14.00,2013-01-20 17:30:00,
2013-01-20 11:32:00,56.7,35.6,30.21,ENE,57,2.0,6.0,45,0.00,,---,0.00,563.00,VWS V14.00,2013-01-20 17:32:00,
2013-01-20 11:37:00,56.9,34.7,30.21,NNE,12,5.0,11.0,43,0.00,,---,0.00,577.00,VWS V14.00,2013-01-20 17:37:00,
2013-01-20 11:42:00,57.2,35.5,30.20,NNE,17,0.0,11.0,44,0.00,,---,0.00,591.00,VWS V14.00,2013-01-20 17:42:00,
2013-01-20 11:47:00,57.3,35.6,30.20,ENE,59,6.0,11.0,44,0.00,,---,0.00,598.00,VWS V14.00,2013-01-20 17:47:00,
2013-01-20 11:52:00,57.5,35.8,30.19,ENE,67,0.0,11.0,44,0.00,,---,0.00,608.00,VWS V14.00,2013-01-20 17:52:00,
2013-01-20 11:57:00,57.8,36.0,30.18,NE,34,0.0,0.0,44,0.00,,---,0.00,613.00,VWS V14.00,2013-01-20 17:57:00,
2013-01-20 12:00:00,57.8,36.0,30.19,NE,34,0.0,11.0,44,0.00,,---,0.00,613.00,VWS V14.00,2013-01-20 18:00:00,
2013-01-20 12:02:00,58.2,35.8,30.18,NE,41,0.0,7.0,43,0.00,,---,0.00,621.00,VWS V14.00,2013-01-20 18:02:00,
2013-01-20 12:07:00,58.5,36.1,30.18,NE,49,0.0,7.0,43,0.00,,---,0.00,622.00,VWS V14.00,2013-01-20 18:07:00,
2013-01-20 12:12:00,58.6,36.2,30.18,ENE,57,1.0,7.0,43,0.00,,---,0.00,624.00,VWS V14.00,2013-01-20 18:12:00,
2013-01-20 12:17:00,58.6,36.8,30.18,ENE,57,0.0,7.0,44,0.00,,---,0.00,626.00,VWS V14.00,2013-01-20 18:17:00,
2013-01-20 12:22:00,58.7,36.3,30.17,NE,55,2.0,7.0,43,0.00,,---,0.00,622.00,VWS V14.00,2013-01-20 18:22:00,
2013-01-20 12:27:00,58.6,36.2,30.17,NE,44,3.0,4.0,43,0.00,,---,0.00,621.00,VWS V14.00,2013-01-20 18:27:00,
2013-01-20 12:30:00,58.6,36.2,30.17,NE,41,2.0,7.0,43,0.00,,---,0.00,621.00,VWS V14.00,2013-01-20 18:30:00,
2013-01-20 12:32:00,58.7,36.3,30.17,NE,52,0.0,7.0,43,0.00,,---,0.00,621.00,VWS V14.00,2013-01-20 18:32:00,
2013-01-20 12:37:00,58.9,35.9,30.17,NE,40,0.0,7.0,42,0.00,,---,0.00,617.00,VWS V14.00,2013-01-20 18:37:00,
2013-01-20 12:42:00,59.4,36.3,30.17,NE,44,1.0,7.0,42,0.00,,---,0.00,612.00,VWS V14.00,2013-01-20 18:42:00,
2013-01-20 12:47:00,59.8,37.3,30.17,East,99,0.0,7.0,43,0.00,,---,0.00,612.00,VWS V14.00,2013-01-20 18:47:00,
2013-01-20 12:52:00,60.0,37.5,30.16,NE,48,1.0,7.0,43,0.00,,---,0.00,608.00,VWS V14.00,2013-01-20 18:52:00,
2013-01-20 12:57:00,60.0,37.5,30.17,ENE,59,3.0,4.0,43,0.00,,---,0.00,606.00,VWS V14.00,2013-01-20 18:57:00,
2013-01-20 13:00:00,60.0,37.5,30.16,ENE,58,3.0,7.0,43,0.00,,---,0.00,605.00,VWS V14.00,2013-01-20 19:00:00,
2013-01-20 13:02:00,60.2,37.6,30.16,East,85,0.0,5.0,43,0.00,,---,0.00,603.00,VWS V14.00,2013-01-20 19:02:00,
2013-01-20 13:07:00,60.5,36.7,30.16,East,96,0.0,5.0,41,0.00,,---,0.00,598.00,VWS V14.00,2013-01-20 19:07:00,
2013-01-20 13:12:00,60.9,37.1,30.16,SSW,210,0.0,5.0,41,0.00,,---,0.00,594.00,VWS V14.00,2013-01-20 19:12:00,
2013-01-20 13:17:00,61.1,37.2,30.16,NE,46,0.0,5.0,41,0.00,,---,0.00,587.00,VWS V14.00,2013-01-20 19:17:00,
2013-01-20 13:22:00,61.1,36.0,30.15,North,5,0.0,5.0,39,0.00,,---,0.00,582.00,VWS V14.00,2013-01-20 19:22:00,
2013-01-20 13:27:00,60.9,37.1,30.15,ESE,109,0.0,0.0,41,0.00,,---,0.00,575.00,VWS V14.00,2013-01-20 19:27:00,
2013-01-20 13:30:00,60.9,37.1,30.15,ESE,109,0.0,5.0,41,0.00,,---,0.00,575.00,VWS V14.00,2013-01-20 19:30:00,
2013-01-20 13:32:00,60.8,37.0,30.15,NNE,24,0.0,1.0,41,0.00,,---,0.00,566.00,VWS V14.00,2013-01-20 19:32:00,
2013-01-20 13:37:00,60.8,37.0,30.16,NNE,33,0.0,1.0,41,0.00,,---,0.00,563.00,VWS V14.00,2013-01-20 19:37:00,
2013-01-20 13:42:00,61.2,38.0,30.15,NNE,27,0.0,1.0,42,0.00,,---,0.00,554.00,VWS V14.00,2013-01-20 19:42:00,
2013-01-20 13:47:00,61.3,36.8,30.15,NNW,336,0.0,5.0,40,0.00,,---,0.00,545.00,VWS V14.00,2013-01-20 19:47:00,
2013-01-20 13:52:00,61.3,36.2,30.15,NE,37,0.0,5.0,39,0.00,,---,0.00,540.00,VWS V14.00,2013-01-20 19:52:00,
2013-01-20 13:57:00,61.3,36.2,30.15,NW,321,0.0,0.0,39,0.00,,---,0.00,531.00,VWS V14.00,2013-01-20 19:57:00,
2013-01-20 14:00:00,61.3,36.2,30.15,NW,322,0.0,5.0,39,0.00,,---,0.00,531.00,VWS V14.00,2013-01-20 20:00:00,
2013-01-20 14:02:00,61.4,36.9,30.15,North,351,0.0,1.0,40,0.00,,---,0.00,519.00,VWS V14.00,2013-01-20 20:02:00,
2013-01-20 14:07:00,61.6,37.1,30.15,West,275,0.0,2.0,40,0.00,,---,0.00,508.00,VWS V14.00,2013-01-20 20:07:00,
2013-01-20 14:12:00,62.1,36.9,30.14,West,276,0.0,2.0,39,0.00,,---,0.00,501.00,VWS V14.00,2013-01-20 20:12:00,
2013-01-20 14:17:00,62.3,37.7,30.15,NE,46,0.0,2.0,40,0.00,,---,0.00,490.00,VWS V14.00,2013-01-20 20:17:00,
2013-01-20 14:22:00,62.5,37.2,30.14,West,265,0.0,3.0,39,0.00,,---,0.00,478.00,VWS V14.00,2013-01-20 20:22:00,
2013-01-20 14:27:00,62.5,37.2,30.14,West,267,0.0,4.0,39,0.00,,---,0.00,468.00,VWS V14.00,2013-01-20 20:27:00,
2013-01-20 14:30:00,62.5,37.2,30.14,West,267,0.0,4.0,39,0.00,,---,0.00,468.00,VWS V14.00,2013-01-20 20:30:00,
2013-01-20 14:32:00,62.5,37.2,30.14,West,267,0.0,1.0,39,0.00,,---,0.00,457.00,VWS V14.00,2013-01-20 20:32:00,
2013-01-20 14:37:00,62.7,37.4,30.14,West,267,0.0,1.0,39,0.00,,---,0.00,443.00,VWS V14.00,2013-01-20 20:37:00,
2013-01-20 14:42:00,63.0,37.7,30.14,West,267,0.0,1.0,39,0.00,,---,0.00,432.00,VWS V14.00,2013-01-20 20:42:00,
2013-01-20 14:47:00,63.4,38.0,30.14,West,267,0.0,1.0,39,0.00,,---,0.00,420.00,VWS V14.00,2013-01-20 20:47:00,
2013-01-20 14:52:00,64.0,37.9,30.14,SSE,147,0.0,1.0,38,0.00,,---,0.00,408.00,VWS V14.00,2013-01-20 20:52:00,
2013-01-20 14:57:00,63.7,37.6,30.13,NE,54,0.0,0.0,38,0.00,,---,0.00,396.00,VWS V14.00,2013-01-20 20:57:00,
2013-01-20 15:00:00,63.8,37.0,30.13,NE,54,0.0,2.0,37,0.00,,---,0.00,396.00,VWS V14.00,2013-01-20 21:00:00,
2013-01-20 15:02:00,63.3,38.6,30.13,ENE,59,2.0,2.0,40,0.00,,---,0.00,381.00,VWS V14.00,2013-01-20 21:02:00,
2013-01-20 15:07:00,62.9,36.9,30.13,NE,51,0.0,2.0,38,0.00,,---,0.00,367.00,VWS V14.00,2013-01-20 21:07:00,
2013-01-20 15:12:00,62.6,37.3,30.13,NE,51,0.0,2.0,39,0.00,,---,0.00,352.00,VWS V14.00,2013-01-20 21:12:00,
2013-01-20 15:18:00,62.7,36.8,30.13,NW,309,0.0,2.0,38,0.00,,---,0.00,339.00,VWS V14.00,2013-01-20 21:18:00,
2013-01-20 15:23:00,62.6,36.7,30.13,NW,309,0.0,2.0,38,0.00,,---,0.00,323.00,VWS V14.00,2013-01-20 21:23:00,
2013-01-20 15:28:00,62.9,37.6,30.13,NW,309,0.0,0.0,39,0.00,,---,0.00,309.00,VWS V14.00,2013-01-20 21:28:00,
2013-01-20 15:30:00,62.9,37.6,30.13,NW,309,0.0,2.0,39,0.00,,---,0.00,311.00,VWS V14.00,2013-01-20 21:30:00,
2013-01-20 15:33:00,63.1,37.1,30.13,East,84,0.0,2.0,38,0.00,,---,0.00,295.00,VWS V14.00,2013-01-20 21:33:00,
2013-01-20 15:38:00,62.9,36.9,30.13,ENE,73,0.0,2.0,38,0.00,,---,0.00,281.00,VWS V14.00,2013-01-20 21:38:00,
2013-01-20 15:42:00,63.2,37.2,30.13,South,181,0.0,2.0,38,0.00,,---,0.00,265.00,VWS V14.00,2013-01-20 21:42:00,
2013-01-20 15:47:00,63.5,37.5,30.13,South,181,0.0,2.0,38,0.00,,---,0.00,250.00,VWS V14.00,2013-01-20 21:47:00,
2013-01-20 15:52:00,63.7,37.0,30.13,South,184,0.0,2.0,37,0.00,,---,0.00,232.00,VWS V14.00,2013-01-20 21:52:00,
2013-01-20 15:57:00,63.5,36.8,30.13,South,185,0.0,0.0,37,0.00,,---,0.00,214.00,VWS V14.00,2013-01-20 21:57:00,
2013-01-20 16:00:00,63.5,36.8,30.13,South,185,0.0,2.0,37,0.00,,---,0.00,218.00,VWS V14.00,2013-01-20 22:00:00,
2013-01-20 16:03:00,63.1,37.1,30.13,SE,139,0.0,1.0,38,0.00,,---,0.00,199.00,VWS V14.00,2013-01-20 22:03:00,
2013-01-20 16:07:00,62.6,36.7,30.13,ENE,73,0.0,1.0,38,0.00,,---,0.00,178.00,VWS V14.00,2013-01-20 22:07:00,
2013-01-20 16:12:00,62.2,36.3,30.13,ENE,63,0.0,1.0,38,0.00,,---,0.00,158.00,VWS V14.00,2013-01-20 22:12:00,
2013-01-20 16:17:00,61.9,36.0,30.13,North,5,0.0,1.0,38,0.00,,---,0.00,137.00,VWS V14.00,2013-01-20 22:17:00,
2013-01-20 16:22:00,61.7,36.5,30.13,NNW,331,0.0,1.0,39,0.00,,---,0.00,118.00,VWS V14.00,2013-01-20 22:22:00,
2013-01-20 16:28:00,61.4,35.6,30.13,NNW,345,0.0,0.0,38,0.00,,---,0.00,100.00,VWS V14.00,2013-01-20 22:28:00,
2013-01-20 16:30:00,61.4,35.6,30.13,NNW,345,0.0,3.0,38,0.00,,---,0.00,104.00,VWS V14.00,2013-01-20 22:30:00,
2013-01-20 16:32:00,61.1,36.0,30.13,NW,318,0.0,1.0,39,0.00,,---,0.00,83.00,VWS V14.00,2013-01-20 22:32:00,
2013-01-20 16:37:00,60.9,35.8,30.13,NNE,30,0.0,1.0,39,0.00,,---,0.00,67.00,VWS V14.00,2013-01-20 22:37:00,
2013-01-20 16:42:00,60.6,36.2,30.13,North,355,0.0,1.0,40,0.00,,---,0.00,54.00,VWS V14.00,2013-01-20 22:42:00,
2013-01-20 16:47:00,60.4,36.0,30.13,North,355,0.0,1.0,40,0.00,,---,0.00,40.00,VWS V14.00,2013-01-20 22:47:00,
2013-01-20 16:53:00,60.3,35.9,30.13,NNW,348,0.0,1.0,40,0.00,,---,0.00,30.00,VWS V14.00,2013-01-20 22:53:00,
2013-01-20 16:58:00,60.2,35.8,30.13,NNW,332,0.0,0.0,40,0.00,,---,0.00,21.00,VWS V14.00,2013-01-20 22:58:00,
2013-01-20 17:00:00,60.2,35.8,30.13,NNW,332,0.0,1.0,40,0.00,,---,0.00,23.00,VWS V14.00,2013-01-20 23:00:00,
2013-01-20 17:03:00,59.8,36.7,30.13,NNW,332,0.0,0.0,42,0.00,,---,0.00,16.00,VWS V14.00,2013-01-20 23:03:00,
2013-01-20 17:08:00,59.4,36.3,30.13,NNW,332,0.0,0.0,42,0.00,,---,0.00,12.00,VWS V14.00,2013-01-20 23:08:00,
2013-01-20 17:13:00,58.9,36.5,30.13,NNW,332,0.0,0.0,43,0.00,,---,0.00,9.00,VWS V14.00,2013-01-20 23:13:00,
2013-01-20 17:18:00,58.4,36.0,30.13,NNW,332,0.0,0.0,43,0.00,,---,0.00,5.00,VWS V14.00,2013-01-20 23:18:00,
2013-01-20 17:22:00,57.9,36.1,30.13,NNW,332,0.0,0.0,44,0.00,,---,0.00,0.00,VWS V14.00,2013-01-20 23:22:00,
2013-01-20 17:27:00,57.2,36.1,30.13,NNW,327,0.0,0.0,45,0.00,,---,0.00,0.00,VWS V14.00,2013-01-20 23:27:00,
2013-01-20 17:30:00,57.2,36.1,30.13,NNW,327,0.0,2.0,45,0.00,,---,0.00,0.00,VWS V14.00,2013-01-20 23:30:00,
2013-01-20 17:32:00,56.6,36.1,30.13,NNW,327,0.0,0.0,46,0.00,,---,0.00,0.00,VWS V14.00,2013-01-20 23:32:00,
2013-01-20 17:37:00,56.1,35.6,30.13,NNW,327,0.0,0.0,46,0.00,,---,0.00,0.00,VWS V14.00,2013-01-20 23:37:00,
2013-01-20 17:42:00,55.7,35.8,30.13,NNW,327,0.0,0.0,47,0.00,,---,0.00,0.00,VWS V14.00,2013-01-20 23:42:00,
2013-01-20 17:47:00,55.4,35.5,30.13,NNW,327,0.0,1.0,47,0.00,,---,0.00,0.00,VWS V14.00,2013-01-20 23:47:00,
2013-01-20 17:52:00,55.0,36.2,30.13,NNW,327,0.0,1.0,49,0.00,,---,0.00,0.00,VWS V14.00,2013-01-20 23:52:00,
2013-01-20 17:58:00,54.6,35.8,30.13,NNW,327,0.0,0.0,49,0.00,,---,0.00,0.00,VWS V14.00,2013-01-20 23:58:00,
2013-01-20 18:00:00,54.6,35.8,30.13,NNW,327,0.0,1.0,49,0.00,,---,0.00,0.00,VWS V14.00,2013-01-21 00:00:00,
2013-01-20 18:03:00,54.1,35.4,30.13,NNW,327,0.0,2.0,49,0.00,,---,0.00,0.00,VWS V14.00,2013-01-21 00:03:00,
2013-01-20 18:08:00,53.8,35.6,30.13,NNW,327,0.0,2.0,50,0.00,,---,0.00,0.00,VWS V14.00,2013-01-21 00:08:00,
2013-01-20 18:12:00,53.5,35.8,30.13,NNW,327,0.0,2.0,51,0.00,,---,0.00,0.00,VWS V14.00,2013-01-21 00:12:00,
2013-01-20 18:18:00,53.1,36.0,30.13,NNW,327,0.0,2.0,52,0.00,,---,0.00,0.00,VWS V14.00,2013-01-21 00:18:00,
2013-01-20 18:23:00,52.7,36.5,30.13,NNW,335,0.0,4.0,54,0.00,,---,0.00,0.00,VWS V14.00,2013-01-21 00:23:00,
2013-01-20 18:28:00,52.3,36.6,30.13,NNW,327,0.0,0.0,55,0.00,,---,0.00,0.00,VWS V14.00,2013-01-21 00:28:00,
2013-01-20 18:30:00,52.4,36.7,30.13,NNW,327,0.0,4.0,55,0.00,,---,0.00,0.00,VWS V14.00,2013-01-21 00:30:00,
2013-01-20 18:33:00,51.9,36.3,30.13,NW,318,0.0,0.0,55,0.00,,---,0.00,0.00,VWS V14.00,2013-01-21 00:33:00,
2013-01-20 18:38:00,51.6,36.4,30.13,NW,318,0.0,0.0,56,0.00,,---,0.00,0.00,VWS V14.00,2013-01-21 00:38:00,
2013-01-20 18:43:00,51.3,36.6,30.13,NW,318,0.0,0.0,57,0.00,,---,0.00,0.00,VWS V14.00,2013-01-21 00:43:00,
2013-01-20 18:48:00,51.0,36.3,30.13,NW,318,0.0,0.0,57,0.00,,---,0.00,0.00,VWS V14.00,2013-01-21 00:48:00,
2013-01-20 18:53:00,50.8,36.6,30.13,NW,318,0.0,0.0,58,0.00,,---,0.00,0.00,VWS V14.00,2013-01-21 00:53:00,
2013-01-20 18:58:00,50.5,36.3,30.12,NW,318,0.0,0.0,58,0.00,,---,0.00,0.00,VWS V14.00,2013-01-21 00:58:00,
2013-01-20 19:00:00,50.5,36.3,30.12,NW,318,0.0,0.0,58,0.00,,---,0.00,0.00,VWS V14.00,2013-01-21 01:00:00,
2013-01-20 19:03:00,50.2,36.0,30.13,NW,318,0.0,0.0,58,0.00,,---,0.00,0.00,VWS V14.00,2013-01-21 01:03:00,
2013-01-20 19:08:00,49.9,36.6,30.13,NW,318,0.0,0.0,60,0.00,,---,0.00,0.00,VWS V14.00,2013-01-21 01:08:00,
2013-01-20 19:13:00,49.4,36.1,30.13,NW,318,0.0,0.0,60,0.00,,---,0.00,0.00,VWS V14.00,2013-01-21 01:13:00,
2013-01-20 19:18:00,49.1,35.8,30.13,NW,318,0.0,0.0,60,0.00,,---,0.00,0.00,VWS V14.00,2013-01-21 01:18:00,
2013-01-20 19:23:00,48.7,35.0,30.13,NW,318,0.0,0.0,59,0.00,,---,0.00,0.00,VWS V14.00,2013-01-21 01:23:00,
2013-01-20 19:28:00,48.3,35.9,30.13,NW,318,0.0,0.0,62,0.00,,---,0.00,0.00,VWS V14.00,2013-01-21 01:28:00,
2013-01-20 19:30:00,48.4,36.0,30.13,NW,318,0.0,0.0,62,0.00,,---,0.00,0.00,VWS V14.00,2013-01-21 01:30:00,
2013-01-20 19:33:00,47.9,35.9,30.13,NW,318,0.0,0.0,63,0.00,,---,0.00,0.00,VWS V14.00,2013-01-21 01:33:00,
2013-01-20 19:38:00,47.6,36.0,30.13,NW,318,0.0,0.0,64,0.00,,---,0.00,0.00,VWS V14.00,2013-01-21 01:38:00,
2013-01-20 19:43:00,47.2,35.3,30.13,NW,318,0.0,0.0,63,0.00,,---,0.00,0.00,VWS V14.00,2013-01-21 01:43:00,
2013-01-20 19:48:00,47.0,35.1,30.13,NW,318,0.0,0.0,63,0.00,,---,0.00,0.00,VWS V14.00,2013-01-21 01:48:00,
2013-01-20 19:53:00,46.7,34.8,30.13,NW,318,0.0,0.0,63,0.00,,---,0.00,0.00,VWS V14.00,2013-01-21 01:53:00,
2013-01-20 19:58:00,46.3,35.2,30.13,NW,318,0.0,0.0,65,0.00,,---,0.00,0.00,VWS V14.00,2013-01-21 01:58:00,
2013-01-20 20:00:00,46.3,35.2,30.13,NW,318,0.0,0.0,65,0.00,,---,0.00,0.00,VWS V14.00,2013-01-21 02:00:00,
2013-01-20 20:03:00,46.0,34.5,30.13,NW,318,0.0,0.0,64,0.00,,---,0.00,0.00,VWS V14.00,2013-01-21 02:03:00,
2013-01-20 20:08:00,45.6,34.9,30.13,NW,318,0.0,0.0,66,0.00,,---,0.00,0.00,VWS V14.00,2013-01-21 02:08:00,
2013-01-20 20:13:00,45.2,34.9,30.14,NW,318,0.0,0.0,67,0.00,,---,0.00,0.00,VWS V14.00,2013-01-21 02:13:00,
2013-01-20 20:18:00,44.9,35.0,30.14,NW,319,0.0,0.0,68,0.00,,---,0.00,0.00,VWS V14.00,2013-01-21 02:18:00,
2013-01-20 20:23:00,44.6,34.7,30.14,NW,319,0.0,0.0,68,0.00,,---,0.00,0.00,VWS V14.00,2013-01-21 02:23:00,
2013-01-20 20:28:00,44.4,34.9,30.14,NW,319,0.0,0.0,69,0.00,,---,0.00,0.00,VWS V14.00,2013-01-21 02:28:00,
2013-01-20 20:30:00,44.4,34.9,30.14,NW,319,0.0,0.0,69,0.00,,---,0.00,0.00,VWS V14.00,2013-01-21 02:30:00,
2013-01-20 20:33:00,44.1,35.0,30.14,NW,319,0.0,0.0,70,0.00,,---,0.00,0.00,VWS V14.00,2013-01-21 02:33:00,
2013-01-20 20:38:00,44.0,34.5,30.14,NW,324,0.0,0.0,69,0.00,,---,0.00,0.00,VWS V14.00,2013-01-21 02:38:00,
2013-01-20 20:43:00,44.2,34.3,30.14,NW,324,0.0,0.0,68,0.00,,---,0.00,0.00,VWS V14.00,2013-01-21 02:43:00,
2013-01-20 20:48:00,44.3,34.4,30.14,NW,324,0.0,0.0,68,0.00,,---,0.00,0.00,VWS V14.00,2013-01-21 02:48:00,
2013-01-20 20:53:00,44.5,34.2,30.14,NW,324,0.0,0.0,67,0.00,,---,0.00,0.00,VWS V14.00,2013-01-21 02:53:00,
2013-01-20 20:58:00,44.5,34.2,30.14,NW,324,0.0,0.0,67,0.00,,---,0.00,0.00,VWS V14.00,2013-01-21 02:58:00,
2013-01-20 21:00:00,44.5,34.2,30.14,NW,324,0.0,0.0,67,0.00,,---,0.00,0.00,VWS V14.00,2013-01-21 03:00:00,
2013-01-20 21:03:00,44.5,33.9,30.14,NW,324,0.0,0.0,66,0.00,,---,0.00,0.00,VWS V14.00,2013-01-21 03:03:00,
2013-01-20 21:08:00,44.6,34.0,30.14,NW,324,0.0,0.0,66,0.00,,---,0.00,0.00,VWS V14.00,2013-01-21 03:08:00,
2013-01-20 21:13:00,44.6,33.6,30.14,NW,324,0.0,0.0,65,0.00,,---,0.00,0.00,VWS V14.00,2013-01-21 03:13:00,
2013-01-20 21:18:00,44.3,33.7,30.15,NW,324,0.0,0.0,66,0.00,,---,0.00,0.00,VWS V14.00,2013-01-21 03:18:00,
2013-01-20 21:23:00,44.1,33.5,30.15,NW,324,0.0,0.0,66,0.00,,---,0.00,0.00,VWS V14.00,2013-01-21 03:23:00,
2013-01-20 21:28:00,43.9,33.3,30.15,NW,324,0.0,0.0,66,0.00,,---,0.00,0.00,VWS V14.00,2013-01-21 03:28:00,
2013-01-20 21:30:00,40.6,32.3,30.16,NW,324,0.0,0.0,72,0.00,,---,0.00,0.00,VWS V14.00,2013-01-21 03:30:00,
2013-01-20 21:33:00,43.7,33.1,30.15,NW,324,0.0,0.0,66,0.00,,---,0.00,0.00,VWS V14.00,2013-01-21 03:33:00,
2013-01-20 21:38:00,43.5,33.3,30.14,NW,324,0.0,0.0,67,0.00,,---,0.00,0.00,VWS V14.00,2013-01-21 03:38:00,
2013-01-20 21:43:00,43.3,33.1,30.15,NW,324,0.0,0.0,67,0.00,,---,0.00,0.00,VWS V14.00,2013-01-21 03:43:00,
2013-01-20 21:48:00,43.0,32.8,30.15,NW,324,0.0,0.0,67,0.00,,---,0.00,0.00,VWS V14.00,2013-01-21 03:48:00,
2013-01-20 21:53:00,42.8,32.6,30.15,NW,324,0.0,0.0,67,0.00,,---,0.00,0.00,VWS V14.00,2013-01-21 03:53:00,
2013-01-20 21:58:00,42.5,32.3,30.15,NW,324,0.0,0.0,67,0.00,,---,0.00,0.00,VWS V14.00,2013-01-21 03:58:00,
2013-01-20 22:00:00,42.5,32.3,30.15,NW,324,0.0,0.0,67,0.00,,---,0.00,0.00,VWS V14.00,2013-01-21 04:00:00,
2013-01-20 22:03:00,42.3,32.9,30.15,NW,324,0.0,0.0,69,0.00,,---,0.00,0.00,VWS V14.00,2013-01-21 04:03:00,
2013-01-20 22:08:00,41.9,32.8,30.16,NW,324,0.0,0.0,70,0.00,,---,0.00,0.00,VWS V14.00,2013-01-21 04:08:00,
2013-01-20 22:13:00,41.6,32.2,30.16,NW,324,0.0,0.0,69,0.00,,---,0.00,0.00,VWS V14.00,2013-01-21 04:13:00,
2013-01-20 22:18:00,41.2,32.2,30.16,NW,324,0.0,0.0,70,0.00,,---,0.00,0.00,VWS V14.00,2013-01-21 04:18:00,
2013-01-20 22:23:00,40.9,31.9,30.16,NW,324,0.0,0.0,70,0.00,,---,0.00,0.00,VWS V14.00,2013-01-21 04:23:00,
2013-01-20 22:28:00,40.5,32.5,30.16,NW,324,0.0,0.0,73,0.00,,---,0.00,0.00,VWS V14.00,2013-01-21 04:28:00,
2013-01-20 22:30:00,40.6,32.3,30.16,NW,324,0.0,0.0,72,0.00,,---,0.00,0.00,VWS V14.00,2013-01-21 04:30:00,
2013-01-20 22:33:00,40.2,31.9,30.16,NW,324,0.0,0.0,72,0.00,,---,0.00,0.00,VWS V14.00,2013-01-21 04:33:00,
2013-01-20 22:38:00,39.8,31.5,30.16,NW,324,0.0,0.0,72,0.00,,---,0.00,0.00,VWS V14.00,2013-01-21 04:38:00,
2013-01-20 22:43:00,39.5,31.6,30.16,NW,324,0.0,0.0,73,0.00,,---,0.00,0.00,VWS V14.00,2013-01-21 04:43:00,
2013-01-20 22:48:00,39.2,31.6,30.16,NW,324,0.0,0.0,74,0.00,,---,0.00,0.00,VWS V14.00,2013-01-21 04:48:00,
2013-01-20 22:53:00,38.9,31.7,30.16,NW,324,0.0,0.0,75,0.00,,---,0.00,0.00,VWS V14.00,2013-01-21 04:53:00,
2013-01-20 22:58:00,38.7,31.1,30.16,NW,324,0.0,0.0,74,0.00,,---,0.00,0.00,VWS V14.00,2013-01-21 04:58:00,
2013-01-20 23:00:00,38.6,31.4,30.16,NW,324,0.0,0.0,75,0.00,,---,0.00,0.00,VWS V14.00,2013-01-21 05:00:00,
2013-01-20 23:02:00,38.4,31.2,30.16,NW,324,0.0,0.0,75,0.00,,---,0.00,0.00,VWS V14.00,2013-01-21 05:02:00,
2013-01-20 23:03:00,38.4,31.5,30.16,NW,324,0.0,0.0,76,0.00,,---,0.00,0.00,VWS V14.00,2013-01-21 05:03:00,
2013-01-20 23:08:00,38.1,30.9,30.16,NW,324,0.0,0.0,75,0.00,,---,0.00,0.00,VWS V14.00,2013-01-21 05:08:00,
2013-01-20 23:13:00,37.9,31.0,30.16,NW,324,0.0,0.0,76,0.00,,---,0.00,0.00,VWS V14.00,2013-01-21 05:13:00,
2013-01-20 23:18:00,37.6,31.4,30.16,NW,324,0.0,0.0,78,0.00,,---,0.00,0.00,VWS V14.00,2013-01-21 05:18:00,
2013-01-20 23:23:00,37.5,31.3,30.16,NW,324,0.0,0.0,78,0.00,,---,0.00,0.00,VWS V14.00,2013-01-21 05:23:00,
2013-01-20 23:28:00,37.3,31.1,30.16,NW,324,0.0,0.0,78,0.00,,---,0.00,0.00,VWS V14.00,2013-01-21 05:28:00,
2013-01-20 23:30:00,37.3,31.1,30.16,NW,324,0.0,0.0,78,0.00,,---,0.00,0.00,VWS V14.00,2013-01-21 05:30:00,
2013-01-20 23:33:00,37.2,31.3,30.16,NW,324,0.0,0.0,79,0.00,,---,0.00,0.00,VWS V14.00,2013-01-21 05:33:00,
2013-01-20 23:38:00,37.1,31.5,30.16,NW,324,0.0,0.0,80,0.00,,---,0.00,0.00,VWS V14.00,2013-01-21 05:38:00,
2013-01-20 23:43:00,36.9,31.0,30.15,NW,324,0.0,0.0,79,0.00,,---,0.00,0.00,VWS V14.00,2013-01-21 05:43:00,
2013-01-20 23:48:00,36.8,31.2,30.15,NW,324,0.0,0.0,80,0.00,,---,0.00,0.00,VWS V14.00,2013-01-21 05:48:00,
2013-01-20 23:53:00,36.6,31.0,30.15,NW,324,0.0,0.0,80,0.00,,---,0.00,0.00,VWS V14.00,2013-01-21 05:53:00,
2013-01-20 23:58:00,36.5,30.9,30.15,NW,324,0.0,0.0,80,0.00,,---,0.00,0.00,VWS V14.00,2013-01-21 05:58:00,